Wahpeton, MN

9:16 PM CST on December 15, 2019 (GMT -0600)
Stern

Weather History for KBWP - October, 2019

Change the Weather History Date:

Tuesday, October 1, 2019

  Actual Average (WUND) Record (WUND)
Temperature  
Mean Temperature 44 °F -  
Max Temperature 46 °F - - (-1)
Min Temperature 41 °F - - (-1)
Degree Days  
Heating Degree Days 22    
Moisture  
Dew Point 36 °F    
Average Humidity 75    
Maximum Humidity 81    
Minimum Humidity 71    
Precipitation  
Precipitation 0.00 in - - ()
Sea Level Pressure  
Sea Level Pressure 30.14 in    
Wind  
Wind Speed 12 mph ()    
Max Wind Speed 17 mph    
Max Gust Speed 23 mph    
Visibility 10.0 miles    
Events      
Averages and records for this station are not official NWS values.
T = Trace of Precipitation, MM = Missing Value Source: Averaged Metar Reports

Daily Weather History Graph

Daily Weather History Graph

Search for Another Location

Airport or City:

Astronomy

Oct. 01, 2019 Rise Set
Actual Time 7:24 AM CDT 7:06 PM CDT
Civil Twilight 6:54 AM CDT 7:36 PM CDT
Nautical Twilight 6:19 AM CDT 8:11 PM CDT
Astronomical Twilight 5:44 AM CDT 8:46 PM CDT
Moon 10:51 AM CDT (10/1) 9:09 PM CDT (10/1)
Length of Visible Light 12h 41m
Length of Day
11h 42m
Waxing Crescent, 12% of the Moon is Illuminated
Oct 1
Waxing Crescent
Oct 5
First Quarter
Oct 13
Full
Oct 21
Last Quarter
Oct 27
New

Hourly Weather History & Observations

Time (CDT) Temp. Windchill Dew Point Humidity Pressure Visibility Wind Dir Wind Speed Gust Speed Precip Events Conditions
12:55 PM 42.8 °F 36.2 °F 35.6 °F 76% 30.15 in 10.0 mi North 12.7 mph - N/A   Unknown
1:15 PM 44.6 °F 38.8 °F 37.4 °F 76% 30.14 in 10.0 mi North 11.5 mph - N/A   Unknown
1:35 PM 46.4 °F 40.7 °F 37.4 °F 71% 30.13 in 10.0 mi NNE 12.7 mph 17.3 mph N/A   Unknown
1:55 PM 46.4 °F 40.1 °F 37.4 °F 71% 30.14 in 10.0 mi North 15.0 mph 18.4 mph N/A   Unknown
2:15 PM 46.4 °F 40.1 °F 37.4 °F 71% 30.13 in 10.0 mi North 15.0 mph 18.4 mph N/A   Unknown
2:35 PM 46.4 °F 40.7 °F 37.4 °F 71% 30.13 in 10.0 mi North 12.7 mph 18.4 mph N/A   Unknown
2:55 PM 46.4 °F 39.8 °F 37.4 °F 71% 30.12 in 10.0 mi North 16.1 mph 20.7 mph N/A   Unknown
3:15 PM 46.4 °F 40.1 °F 37.4 °F 71% 30.12 in 10.0 mi North 15.0 mph - N/A   Unknown
3:35 PM 46.4 °F 40.1 °F 37.4 °F 71% 30.13 in 10.0 mi North 15.0 mph 23.0 mph N/A   Unknown
3:55 PM 46.4 °F 39.5 °F 37.4 °F 71% 30.12 in 10.0 mi North 17.3 mph 23.0 mph N/A   Unknown
4:15 PM 44.6 °F 37.2 °F 37.4 °F 76% 30.13 in 10.0 mi North 17.3 mph - N/A   Unknown
4:35 PM 44.6 °F 37.2 °F 35.6 °F 71% 30.12 in 10.0 mi North 17.3 mph - N/A   Unknown
4:55 PM 44.6 °F 38.1 °F 35.6 °F 71% 30.13 in 10.0 mi North 13.8 mph 19.6 mph N/A   Unknown
5:15 PM 44.6 °F 38.4 °F 35.6 °F 71% 30.12 in 10.0 mi North 12.7 mph 21.9 mph N/A   Unknown
5:55 PM 44.6 °F 38.1 °F 35.6 °F 71% 30.11 in 10.0 mi North 13.8 mph 17.3 mph N/A   Unknown
6:15 PM 44.6 °F 38.4 °F 35.6 °F 71% 30.13 in 10.0 mi North 12.7 mph 16.1 mph N/A   Unknown
6:35 PM 44.6 °F 38.4 °F 35.6 °F 71% 30.13 in 10.0 mi North 12.7 mph - N/A   Unknown
6:55 PM 44.6 °F 38.4 °F 35.6 °F 71% 30.14 in 10.0 mi North 12.7 mph - N/A   Unknown
7:15 PM 42.8 °F 35.1 °F 35.6 °F 76% 30.14 in 10.0 mi North 16.1 mph - N/A   Unknown
7:35 PM 42.8 °F 36.2 °F 35.6 °F 76% 30.14 in 10.0 mi North 12.7 mph 17.3 mph N/A   Unknown
7:55 PM 42.8 °F 36.2 °F 35.6 °F 76% 30.13 in 10.0 mi North 12.7 mph - N/A   Unknown
8:15 PM 42.8 °F 35.8 °F 35.6 °F 76% 30.13 in 10.0 mi North 13.8 mph 18.4 mph N/A   Unknown
8:35 PM 42.8 °F 36.6 °F 35.6 °F 76% 30.13 in 10.0 mi North 11.5 mph - N/A   Unknown
8:55 PM 42.8 °F 37.0 °F 35.6 °F 76% 30.15 in 10.0 mi North 10.4 mph 16.1 mph N/A   Unknown
9:15 PM 41.0 °F 34.3 °F 35.6 °F 81% 30.16 in 10.0 mi NNW 11.5 mph - N/A   Unknown
9:35 PM 41.0 °F 33.9 °F 35.6 °F 81% 30.16 in 10.0 mi North 12.7 mph - N/A   Unknown
9:55 PM 41.0 °F 35.2 °F 35.6 °F 81% 30.15 in 10.0 mi North 9.2 mph - N/A   Unknown
10:15 PM 41.0 °F 34.3 °F 35.6 °F 81% 30.16 in 10.0 mi North 11.5 mph 17.3 mph N/A   Unknown
10:35 PM 41.0 °F 34.7 °F 35.6 °F 81% 30.17 in 10.0 mi North 10.4 mph - N/A   Unknown
10:55 PM 41.0 °F 34.3 °F 35.6 °F 81% 30.16 in 10.0 mi North 11.5 mph - N/A   Unknown
11:15 PM 41.0 °F 34.7 °F 35.6 °F 81% 30.16 in 10.0 mi North 10.4 mph - N/A   Unknown
11:35 PM 41.0 °F 33.9 °F 35.6 °F 81% 30.17 in 10.0 mi North 12.7 mph - N/A   Unknown
11:55 PM 41.0 °F 35.8 °F 35.6 °F 81% 30.16 in 10.0 mi North 8.1 mph - N/A   Unknown